User: anonymous   Login
Location: Fort Wayne
(41.1310°N, 85.1290°W)
Time: 20:09:00
(UTC-04:00)
Language:

Meteor 2-9 Rocket - Orbit

View from above orbital plane
View from above orbital plane
View from above satellite
View from above satellite

Ground track
Ground track

The orbit data is extracted from the following two-line orbital elements,

1 13719U 82116B   16240.70626667 +.00000078 +00000-0 +32706-4 0  9999
2 13719 081.2537 287.8651 0072904 109.7428 024.2861 14.14586987738878
Epoch (UTC): 27 August 2016 16:57:01
Eccentricity: 0.0072904
inclination: 81.2537°
perigee height: 791 km
apogee height: 896 km
right ascension of ascending node: 287.8651°
argument of perigee: 109.7428°
revolutions per day: 14.14586987
mean anomaly at epoch: 24.2861°
orbit number at epoch: 73887

The dashed part of the orbit path shows where the satellite is in the earth's shadow,  

DLR